Latest Weather Observations for Bickley

IDW60801

Issued at 6:32 am WST Monday 2 February 2015 (issued every 30 minutes, with the page automatically refreshed every 10 minutes)

About weather observations | Map of weather stations | Latest weather observations for WA | Other Formats
Station Details ID: 009240 Name: BICKLEY Lat: -32.01 Lon: 116.14 Height: 384.0 m
Data from the previous 72 hours. | See also: Recent months at Bickley
Date/Time
WST
Temp
°C
App
Temp
°C
Dew
Point
Rel
Hum
%
Delta-T
°C
Wind Press
QNH
hPa
Press
MSL
hPa
Rain
since 9 am
mm
Dir
 
Spd
km/h
Gust
km/h
Spd
kts
Gust
kts
02/06:30am 17.9 - - - - - - - - - - - 11.6
02/06:00am 17.4 - - - - - - - - - - - 11.6
02/05:30am 17.3 - - - - - - - - - - - 11.6
02/05:00am 17.1 - - - - - - - - - - - 11.6
02/04:30am 17.1 - - - - - - - - - - - 11.6
02/04:00am 17.2 - - - - - - - - - - - 11.6
02/03:30am 17.1 - - - - - - - - - - - 11.4
02/03:00am 17.1 - - - - - - - - - - - 11.4
02/02:30am 17.3 - - - - - - - - - - - 11.4
02/02:00am 17.4 - - - - - - - - - - - 11.4
02/01:30am 17.5 - - - - - - - - - - - 11.4
02/01:00am 17.7 - - - - - - - - - - - 11.4
02/12:30am 17.9 - - - - - - - - - - - 11.0
 
Date/Time
WST
Temp
°C
App
Temp
°C
Dew
Point
Rel
Hum
%
Delta-T
°C
Wind Press
QNH
hPa
Press
MSL
hPa
Rain
since 9 am
mm
Dir
 
Spd
km/h
Gust
km/h
Spd
kts
Gust
kts
01/11:30pm 18.3 - - - - - - - - - - - 6.4
01/11:00pm 18.6 - - - - - - - - - - - 4.4
01/10:30pm 18.9 - - - - - - - - - - - 0.2
01/10:00pm 19.6 - - - - - - - - - - - 0.0
01/09:30pm 19.9 - - - - - - - - - - - 0.0
01/09:00pm 20.9 - 15.4 71 3.3 - - - - - - - 0.0
01/08:51pm 21.3 - 15.2 68 3.7 - - - - - - - 0.0
01/08:30pm 26.3 - 9.2 34 9.5 - - - - - - - 0.0
01/08:00pm 26.7 - 9.1 33 9.8 - - - - - - - 0.0
01/07:30pm 26.9 - 8.4 31 10.2 - - - - - - - 0.0
01/07:00pm 27.3 - 8.7 31 10.3 - - - - - - - 0.0
01/06:30pm 27.4 - 8.8 31 10.4 - - - - - - - 0.0
01/06:00pm 28.4 - 9.2 30 10.8 - - - - - - - 0.0
01/05:30pm 29.1 - 9.3 29 11.2 - - - - - - - 0.0
01/05:00pm 29.6 - 9.7 29 11.4 - - - - - - - 0.0
01/04:30pm 29.8 - 9.3 28 11.6 - - - - - - - 0.0
01/04:00pm 29.6 - 9.2 28 11.6 - - - - - - - 0.0
01/03:30pm 30.6 - 10.0 28 11.9 - - - - - - - 0.0
01/03:00pm 29.1 - 9.8 30 11.0 - - - - - - - 0.0
01/02:30pm 29.2 - 10.8 32 10.7 - - - - - - - 0.0
01/02:00pm 27.0 - 9.8 34 9.7 - - - - - - - 0.0
01/01:30pm 25.7 - 9.5 36 9.0 - - - - - - - 0.0
01/01:00pm 26.0 - 9.8 36 9.1 - - - - - - - 0.0
01/12:30pm 26.5 - - - - - - - - - - - 0.0
01/12:00pm 26.0 - - - - - - - - - - - 0.0
01/11:30am 22.4 - - - - - - - - - - - 0.0
01/11:00am 21.1 - - - - - - - - - - - 0.0
01/10:30am 20.9 - - - - - - - - - - - 0.0
01/10:00am 20.0 - - - - - - - - - - - 0.0
01/09:30am 19.8 - - - - - - - - - - - 0.0
01/09:00am 20.8 - - - - - - - - - - - 0.0
01/08:30am 19.9 - - - - - - - - - - - 0.0
01/08:00am 19.0 - - - - - - - - - - - 0.0
01/07:30am 17.8 - - - - - - - - - - - 0.0
01/07:00am 17.5 - - - - - - - - - - - 0.0
01/06:30am 17.0 - - - - - - - - - - - 0.0
01/06:00am 16.8 - - - - - - - - - - - 0.0
01/05:30am 17.1 - - - - - - - - - - - 0.0
01/05:00am 17.2 - - - - - - - - - - - 0.0
01/04:30am 17.3 - - - - - - - - - - - 0.0
01/04:00am 17.5 - - - - - - - - - - - 0.0
01/03:30am 17.8 - - - - - - - - - - - 0.0
01/03:00am 17.9 - - - - - - - - - - - 0.0
01/02:30am 18.4 - - - - - - - - - - - 0.0
01/02:00am 18.7 - - - - - - - - - - - 0.0
01/01:30am 19.1 - - - - - - - - - - - 0.0
01/01:00am 19.8 - - - - - - - - - - - 0.0
01/12:30am 20.6 - - - - - - - - - - - 0.0
01/12:00am 21.4 - - - - - - - - - - - 0.0
 
Date/Time
WST
Temp
°C
App
Temp
°C
Dew
Point
Rel
Hum
%
Delta-T
°C
Wind Press
QNH
hPa
Press
MSL
hPa
Rain
since 9 am
mm
Dir
 
Spd
km/h
Gust
km/h
Spd
kts
Gust
kts
31/11:30pm 22.0 - - - - - - - - - - - 0.0
31/11:00pm 22.9 - - - - - - - - - - - 0.0
31/10:30pm 23.5 - - - - - - - - - - - 0.0
31/10:00pm 23.9 - - - - - - - - - - - 0.0
31/09:30pm 24.2 - - - - - - - - - - - 0.0
31/09:00pm 24.5 - - - - - - - - - - - 0.0
31/08:30pm 25.0 - - - - - - - - - - - 0.0
31/08:00pm 25.1 - - - - - - - - - - - 0.0
31/07:30pm 25.3 - - - - - - - - - - - 0.0
31/07:00pm 25.5 - - - - - - - - - - - 0.0
31/06:30pm 25.9 - - - - - - - - - - - 0.0
31/06:00pm 26.5 - - - - - - - - - - - 0.0
31/05:30pm 27.8 - - - - - - - - - - - 0.0
31/05:00pm 27.0 - - - - - - - - - - - 0.0
31/04:30pm 27.5 - - - - - - - - - - - 0.0
31/04:00pm 26.8 - - - - - - - - - - - 0.0
31/03:30pm 27.5 - - - - - - - - - - - 0.0
31/03:00pm 26.9 - - - - - - - - - - - 0.0
31/02:30pm 26.7 - - - - - - - - - - - 0.0
31/02:00pm 25.7 - - - - - - - - - - - 0.0
31/01:30pm 25.5 - - - - - - - - - - - 0.0
31/01:00pm 25.5 - - - - - - - - - - - 0.0
31/12:30pm 24.9 - 8.0 34 9.2 - - - - - - - 0.0
31/12:00pm 25.2 - 9.1 36 8.9 - - - - - - - 0.0
31/11:30am 24.2 - 8.6 37 8.5 - - - - - - - 0.0
31/11:00am 23.8 - 9.4 40 7.9 - - - - - - - 0.0
31/10:30am 23.1 - 9.1 41 7.7 - - - - - - - 0.0
31/10:00am 22.6 - - - - - - - - - - - 0.0
31/09:30am 21.3 - - - - - - - - - - - 0.0
31/09:00am 20.6 - - - - - - - - - - - 0.0
31/08:30am 19.5 - - - - - - - - - - - 0.0
31/08:00am 18.4 - - - - - - - - - - - 0.0
31/07:30am 17.0 - - - - - - - - - - - 0.0
31/07:00am 16.3 - - - - - - - - - - - 0.0
31/06:30am 15.9 - - - - - - - - - - - 0.0
31/06:00am 15.6 - - - - - - - - - - - 0.0
31/05:30am 15.7 - - - - - - - - - - - 0.0
31/05:00am 16.0 - - - - - - - - - - - 0.0
31/04:30am 16.3 - - - - - - - - - - - 0.0
31/04:00am 16.5 - - - - - - - - - - - 0.0
31/03:30am 16.8 - - - - - - - - - - - 0.0
31/03:00am 17.2 - - - - - - - - - - - 0.0
31/02:30am 17.8 - - - - - - - - - - - 0.0
31/02:00am 18.7 - - - - - - - - - - - 0.0
31/01:30am 19.8 - - - - - - - - - - - 0.0
31/01:00am 20.8 - - - - - - - - - - - 0.0
31/12:30am 21.8 - - - - - - - - - - - 0.0
31/12:00am 22.5 - - - - - - - - - - - 0.0
 
Date/Time
WST
Temp
°C
App
Temp
°C
Dew
Point
Rel
Hum
%
Delta-T
°C
Wind Press
QNH
hPa
Press
MSL
hPa
Rain
since 9 am
mm
Dir
 
Spd
km/h
Gust
km/h
Spd
kts
Gust
kts
30/11:30pm 23.6 - - - - - - - - - - - 0.0
30/11:00pm 24.7 - - - - - - - - - - - 0.0
30/10:30pm 25.6 - - - - - - - - - - - 0.0
30/10:00pm 26.4 - - - - - - - - - - - 0.0
30/09:30pm 27.3 - 5.6 25 11.4 - - - - - - - 0.0
30/09:00pm 27.3 - 7.2 28 10.9 - - - - - - - 0.0
30/08:30pm 27.1 - 8.0 30 10.5 - - - - - - - 0.0
30/08:00pm 25.8 - 8.3 33 9.6 - - - - - - - 0.0
30/07:30pm 26.1 - 8.6 33 9.6 - - - - - - - 0.0
30/07:00pm 26.7 - 9.1 33 9.8 - - - - - - - 0.0
30/06:30pm 27.5 - 9.3 32 10.2 - - - - - - - 0.0
30/06:00pm 28.2 - 9.0 30 10.8 - - - - - - - 0.0
30/05:30pm 28.2 - 8.5 29 11.0 - - - - - - - 0.0
30/05:00pm 28.5 - 7.7 27 11.4 - - - - - - - 0.0
30/04:30pm 29.1 - 7.6 26 11.8 - - - - - - - 0.0
30/04:00pm 30.6 - 5.8 21 13.3 - - - - - - - 0.0
30/03:30pm 31.2 - 7.0 22 13.3 - - - - - - - 0.0
30/03:00pm 31.3 - 8.3 24 12.9 - - - - - - - 0.0
30/02:30pm 30.9 - 8.6 25 12.6 - - - - - - - 0.0
30/02:00pm 30.1 - 7.9 25 12.3 - - - - - - - 0.0
30/01:30pm 30.8 - - - - - - - - - - - 0.0
30/01:00pm 30.6 - - - - - - - - - - - 0.0
30/12:30pm 29.5 - - - - - - - - - - - 0.0
30/12:00pm 30.2 - - - - - - - - - - - 0.0
30/11:30am 29.2 - - - - - - - - - - - 0.0
30/11:00am 29.7 - - - - - - - - - - - 0.0
30/10:30am 28.3 - - - - - - - - - - - 0.0
30/10:00am 25.6 - - - - - - - - - - - 0.0
30/09:30am 24.6 - - - - - - - - - - - 0.0
30/09:00am 23.2 - - - - - - - - - - - 1.4
30/08:30am 22.6 - - - - - - - - - - - 1.4
30/08:00am 22.2 - - - - - - - - - - - 1.4
30/07:30am 21.6 - - - - - - - - - - - 1.4
30/07:00am 22.5 - - - - - - - - - - - 1.4

Other Formats:

Comma delimited format used in spreadsheet applications
http://www.bom.gov.au/fwo/IDW60801/IDW60801.95610.axf

JavaScript Object Notation format (JSON) in row-major order
http://www.bom.gov.au/fwo/IDW60801/IDW60801.95610.json